Weather History for Newark, NJ

Change the Weather History Date:

Friday, December 13, 2013

  Actual Average Record
Temperature  
Mean Temperature 26 °F 37 °F  
Max Temperature 35 °F 44 °F 63 °F (1946)
Min Temperature 17 °F 30 °F 8 °F (1960)
Degree Days  
Heating Degree Days 39 28  
Month to date heating degree days 354 334  
Since 1 July heating degree days 1224 1202  
Cooling Degree Days 0 0  
Month to date cooling degree days 0 0  
Year to date cooling degree days 1337 1192  
Moisture  
Dew Point 12 °F    
Average Humidity 53    
Maximum Humidity 63    
Minimum Humidity 43    
Precipitation  
Precipitation 0.00 in 0.12 in 2.57 in (1941)
Month to date precipitation 1.67 1.69  
Year to date precipitation 39.99 44.13  
Snow  
Snow 0.00 in 0.20 in 1.40 in (1966)
Month to date snowfall 3.1 1.6  
Since 1 July snowfall 3.1 2.0  
Snow Depth 0.00 in    
Sea Level Pressure  
Sea Level Pressure 30.21 in    
Wind  
Wind Speed 10 mph (WSW)    
Max Wind Speed 18 mph    
Max Gust Speed 31 mph    
Visibility 10 miles    
Events      
T = Trace of Precipitation, MM = Missing Value Source: NWS Daily Summary

Daily Weather History Graph

Daily Weather History Graph

Search for Another Location

Airport:

Trip Planner

Search our weather history database for the weather conditions in past years. The results will help you decide how hot, cold, wet, or windy it might be!

Date:

Astronomy

Dec. 13, 2013 Rise Set
Actual Time 7:12 AM EST 4:29 PM EST
Civil Twilight 6:41 AM EST 5:00 PM EST
Nautical Twilight 6:06 AM EST 5:35 PM EST
Astronomical Twilight 5:33 AM EST 6:08 PM EST
Moon 2:11 PM EST (12/13) 3:31 AM EST (12/13)
Length of Visible Light 10h 19m
Length of Day
9h 17m
Waxing Gibbous, 88% of the Moon is Illuminated
Dec 13
Waxing Gibbous
Dec 17
Full
Dec 25
Last Quarter
Jan 1
New
Jan 7
First Quarter

Hourly Weather History & Observations

Time (EST) Temp. Windchill Dew Point Humidity Pressure Visibility Wind Dir Wind Speed Gust Speed Precip Events Conditions
12:51 AM 21.0 °F 11.4 °F 6.1 °F 53% 30.17 in 10.0 mi WSW 8.1 mph - N/A   Partly Cloudy
1:51 AM 18.0 °F 11.1 °F 7.0 °F 62% 30.17 in 10.0 mi SW 4.6 mph - N/A   Clear
2:51 AM 18.0 °F 8.7 °F 6.1 °F 60% 30.16 in 10.0 mi WSW 6.9 mph - N/A   Clear
3:51 AM 19.9 °F 8.6 °F 6.1 °F 55% 30.16 in 10.0 mi SW 10.4 mph - N/A   Clear
4:51 AM 21.0 °F 11.4 °F 8.1 °F 57% 30.17 in 10.0 mi WSW 8.1 mph - N/A   Mostly Cloudy
5:51 AM 21.9 °F 11.0 °F 8.1 °F 55% 30.17 in 10.0 mi WSW 10.4 mph - N/A   Overcast
6:51 AM 23.0 °F 11.7 °F 9.0 °F 55% 30.19 in 10.0 mi WSW 11.5 mph - N/A   Overcast
7:51 AM 24.1 °F 14.4 °F 9.0 °F 53% 30.19 in 10.0 mi WSW 9.2 mph - N/A   Mostly Cloudy
8:51 AM 25.0 °F 14.8 °F 10.9 °F 55% 30.20 in 10.0 mi SW 10.4 mph - N/A   Mostly Cloudy
9:51 AM 27.0 °F 16.7 °F 10.9 °F 51% 30.21 in 10.0 mi WSW 11.5 mph - N/A   Mostly Cloudy
10:51 AM 28.9 °F 16.9 °F 10.9 °F 47% 30.19 in 10.0 mi West 17.3 mph 27.6 mph N/A   Mostly Cloudy
11:51 AM 32.0 °F 20.8 °F 14.0 °F 48% 30.15 in 10.0 mi WNW 17.3 mph - N/A   Scattered Clouds
12:51 PM 33.1 °F 22.6 °F 14.0 °F 46% 30.15 in 10.0 mi West 16.1 mph 26.5 mph N/A   Scattered Clouds
1:51 PM 35.1 °F 25.5 °F 16.0 °F 46% 30.15 in 10.0 mi West 15.0 mph - N/A   Scattered Clouds
2:51 PM 35.1 °F 24.5 °F 16.0 °F 46% 30.16 in 10.0 mi West 18.4 mph 25.3 mph N/A   Scattered Clouds
3:51 PM 34.0 °F 23.4 °F 16.0 °F 48% 30.18 in 10.0 mi West 17.3 mph - N/A   Scattered Clouds
4:51 PM 33.1 °F 25.5 °F 15.1 °F 48% 30.20 in 10.0 mi West 9.2 mph - N/A   Scattered Clouds
5:51 PM 32.0 °F 24.8 °F 16.0 °F 52% 30.23 in 10.0 mi WSW 8.1 mph - N/A   Mostly Cloudy
6:51 PM 30.9 °F 25.2 °F 17.1 °F 57% 30.26 in 10.0 mi SW 5.8 mph - N/A   Mostly Cloudy
7:51 PM 32.0 °F 26.4 °F 16.0 °F 52% 30.28 in 10.0 mi WSW 5.8 mph - N/A   Mostly Cloudy
8:51 PM 30.0 °F 21.7 °F 16.0 °F 56% 30.30 in 10.0 mi SW 9.2 mph - N/A   Mostly Cloudy
9:51 PM 32.0 °F 27.5 °F 16.0 °F 52% 30.30 in 10.0 mi WSW 4.6 mph - N/A   Overcast
10:51 PM 28.9 °F 25.2 °F 18.0 °F 64% 30.33 in 10.0 mi SSW 3.5 mph - N/A   Overcast
11:51 PM 30.9 °F 26.2 °F 17.1 °F 57% 30.34 in 10.0 mi WSW 4.6 mph - N/A   Overcast